This is the latest recevied weather packets stored in our database for station/object GW4003. If no packets are shown the sender has not sent any weather packets the latest 10 day(s).
| Time | Temp. | Humidity | Pressure | Rain* | Wind** | Luminosity | Snow |
|---|---|---|---|---|---|---|---|
| 1788042462 | 29.44° C | 28% | 1018.1 hPa | 0 mm | - | - | - |
| 1788042158 | 29.44° C | 29% | 1018.1 hPa | 0 mm | - | - | - |
| 1788041855 | 28.89° C | 31% | 1018.2 hPa | 0 mm | - | - | - |
| 1788041551 | 28.89° C | 33% | 1018.2 hPa | 0 mm | - | - | - |
| 1788041259 | 28.89° C | 32% | 1018.3 hPa | 0 mm | - | - | - |
| 1788040944 | 29.44° C | 32% | 1018.4 hPa | 0 mm | - | - | - |
| 1788040639 | 30° C | 32% | 1018.3 hPa | 0 mm | - | - | - |
| 1788040336 | 31.11° C | 28% | 1018.2 hPa | 0 mm | - | - | - |
| 1788040032 | 31.67° C | 26% | 1018.1 hPa | 0 mm | - | - | - |
| 1788039729 | 32.22° C | 24% | 1018 hPa | 0 mm | - | - | - |
| 1788039425 | 32.22° C | 23% | 1017.7 hPa | 0 mm | - | - | - |
| 1788039121 | 32.22° C | 22% | 1017.5 hPa | 0 mm | - | - | - |
| 1788038817 | 32.22° C | 22% | 1017.4 hPa | 0 mm | - | - | - |
| 1788038514 | 32.22° C | 22% | 1017.5 hPa | 0 mm | - | - | - |
| 1788038209 | 32.22° C | 22% | 1017.5 hPa | 0 mm | - | - | - |
| 1788037905 | 32.78° C | 22% | 1017.5 hPa | 0 mm | - | - | - |
| 1788037602 | 32.22° C | 22% | 1017.5 hPa | 0 mm | - | - | - |
| 1788037298 | 32.78° C | 22% | 1017.5 hPa | 0 mm | - | - | - |
| 1788036994 | 32.78° C | 21% | 1017.6 hPa | 0 mm | - | - | - |
| 1788036690 | 32.78° C | 22% | 1017.6 hPa | 0 mm | - | - | - |
| 1788036387 | 32.22° C | 22% | 1017.6 hPa | 0 mm | - | - | - |
| 1788036083 | 32.22° C | 23% | 1017.8 hPa | 0 mm | - | - | - |
| 1788035779 | 32.22° C | 22% | 1017.8 hPa | 0 mm | - | - | - |
| 1788035476 | 32.22° C | 23% | 1018 hPa | 0 mm | - | - | - |
| 1788035171 | 31.67° C | 23% | 1018 hPa | 0 mm | - | - | - |
* Rain latest hour (hover to see other rain measurements)
** Current wind speed in m/s (hover to see current wind gust speed)